SL-24 R/B, 40541

Orbit data source: Space-Track

SL-24 R/B, 40541 is space debris in SSO originally from a launch on Wed, 25 Mar 2015 UTC launched from the Orenburg, Russia (OREN). Debris objects in space refer to the collection of defunct objects orbiting the Earth. Examples of debris include non-operational satellites, rocket bodies, and fragments generated from explosions, collisions, or faulty payload assembly.

Loading next visibility...
SL-24 R/B details
Identifier
40541, 2015-014C
Orbit
SSO
Last TLE update7 hours ago
Origin
Flag of CISKosmotras (CIS)
ManufacturerYuzhnoe
MissionSpacecraft
Bus & Motor15A18-BR, Unknown motor
Mass~1,000 kg wet, ~1,000 kg dry
Launch date (UTC)
2015-03-25 (10 years ago)
Launch vehicleUnknown
Launch site
Orenburg, Russia (OREN)
Object type
Payload
Rocket body
Debris
Shape & HBRCyl, 3 m
Radar Cross Section10.603 m², Large (>1 m²)

Expand to show TLE details & history

TLE from 7 hours ago
0 SL-24 R/B
1 40541U 15014C   24361.40612128  .00002083  00000-0  51783-3 0  9995
2 40541  97.3841 282.1147 0612363 314.3395  40.9089 13.77080389489751
Epoch: 2024-12-26T09:44Z
Definitive object data (Epoch: 2024-12-26T09:44:48.878Z)
Latitude-0.00007°
Longitude40.52507°
Altitude649.532 km
Speed7.699 km/s
True Right ascension18h 48m 27s
True Declination0° 00' 00"
Sunlit
Object was in daylight at TLE epoch
Visualization TLE readout
Latitude47.40884°
Longitude32.69783°
Altitude988.101 km
Speed7.359 km/s
Apparent Right ascension23h 09m 42s
Apparent Declination27° 44' 46"
Sunlit
Object is in daylight
Visualization observer readout
Local Sidereal Time16:18:49
Azimuth60.818° ENE
Elevation8.583°
Doppler factor1
Orbital elements
Apogee altitude1,421.462 km
Perigee altitude521.344 km
Semi-major axis7,349.54 km
Eccentricity0.0612363
Inclination97.3841°
RAAN282.1147°
Arg. of periapsis314.3395°
True anomaly45.77964°
Mean anomaly40.9089°
Eccentric anomaly43.31586°
Mean motion3.44471 °/min
BSTAR0.00051783
Orbital period104.51 mins
Loading maneuver chart data...
Loading historical data...
Loading historical data...
Loading historical data...
Loading historical data...
Loading historical data...
Loading historical data...
Loading historical data...
Other satellites on launch #14 in the year 2015 (2015-03-25 UTC)

SL-24 R/B Visibility forecast

Observer location: undefined°, undefined

Span
Click to sort rows by Start time (UTC) header in descending order
Start Az.
Max El. time (UTC)
Max El. Az.
Max El.
End time (UTC)
End Az.
11 mins2024-12-26 18:34:34.296Z149.233° SSE2024-12-26 18:39:34.296Z62.956° ENE40.49°2024-12-26 18:45:34.296Z355.519° N
6 mins2024-12-26 20:21:34.296Z249.791° W2024-12-26 20:23:34.296Z275.543° WNW17.619°2024-12-26 20:27:34.296Z316.169° NNW
14 mins2024-12-27 07:16:34.296Z22.412° NNE2024-12-27 07:22:34.296Z86.187° E41.264°2024-12-27 07:30:34.296Z177.423° S
12 mins2024-12-27 09:00:34.296Z345.094° N2024-12-27 09:05:34.296Z297.31° NW28.591°2024-12-27 09:12:34.296Z237.49° WSW
|